Regional Weather Roundup
Issued by NWS

Home | Current Version | Previous Version | Graphics & Text | Print | Product List | Glossary On
Versions: 1 2 3 4 5 6 7 8 9 10 11 12 13 14 15 16 17 18 19 20 21 22 23 24 25 26 27 28 29 30 31 32 33 34 35 36 37 38 39 40 41 42 43 44 45 46 47 48 49 50
000
ASUS43 KFSD 151602
RWRSD

WEATHER ROUNDUP FOR SOUTH DAKOTA
NATIONAL WEATHER SERVICE SIOUX FALLS SD
1100 AM CDT MON SEP 15 2014

NOTE: "FAIR" INDICATES FEW OR NO CLOUDS BELOW 12,000 FEET WITH NO
SIGNIFICANT WEATHER AND/OR OBSTRUCTIONS TO VISIBILITY.


SDZ001>005-009-010-012>017-151700-
NORTHWEST AND NORTH CENTRAL SOUTH DAKOTA

CITY           SKY/WX    TMP DP  RH WIND       PRES   REMARKS
FAITH            N/A     54  40  59 S13       30.29S
MOBRIDGE       SUNNY     55  39  54 SW3       30.27F
$$

SDZ012>016-024>037-041>051-057-063-072>074-151700-
SOUTHWEST AND SOUTH CENTRAL SOUTH DAKOTA

CITY           SKY/WX    TMP DP  RH WIND       PRES   REMARKS
RAPID CTY ARPT SUNNY     54  41  61 S9        30.29F
PIERRE         SUNNY     56  41  57 W6        30.30S
CUSTER         SUNNY     53  41  63 SW5       30.30S
ELLSWORTH AFB  SUNNY     53  42  64 S10       30.28F
PHILIP         SUNNY     55  39  54 S3        30.32S
PINE RIDGE     SUNNY     52  41  66 CALM      30.32S
WINNER         FAIR      57  37  47 MISG      30.32R
$$

SDZ004>011-016>023-039-040-151700-
NORTHEAST SOUTH DAKOTA

CITY           SKY/WX    TMP DP  RH WIND       PRES   REMARKS
ABERDEEN       SUNNY     55  41  59 N6        30.29S
WATERTOWN      MOSUNNY   54  44  69 N8        30.27R
$$

SDZ017-020-022-023-036>040-048>070-151700-
SOUTHEAST SOUTH DAKOTA

CITY           SKY/WX    TMP DP  RH WIND       PRES   REMARKS
SIOUX FALLS    MOSUNNY   56  45  66 N10       30.26S
HURON          SUNNY     57  41  55 N9        30.29S
CHAMBERLAIN    SUNNY     56  37  47 NW8       30.31S
MITCHELL       SUNNY     57  45  64 N9        30.30R
YANKTON        PTSUNNY   55  43  62 N9        30.28S
$$

ABBREVIATIONS USED IN REMARKS
   TC - TEMPERATURE IN CELSIUS
  WCI - WIND CHILL INDEX
   HX - HEAT INDEX
  VSB - VISIBILITY



USA.gov is the U.S. government's official web portal to all federal, state and local government web resources and services.